Location: Poughquag
(41.6090°N, 73.6820°W)
Time: 03:40:58
(UTC-04:00)

Vanguard 1 - Pass Details

Date: 06 June 2020
Orbit: 650 x 3833 km, 34.2° (Epoch: 06 July)

Event Time Altitude Azimuth Distance (km) Brightness Sun altitude
Rises 10:13:18 0° 281° (W) 7,055 14.1 51.7°
Reaches altitude 10° 10:17:45 10° 276° (W) 6,334 13.9 52.5°
Maximum altitude 10:38:20 51° 210° (SSW) 4,439 14.0 56.1°
Drops below altitude 10° 10:58:35 10° 142° (SE) 6,203 14.8 59.5°
Sets 11:02:56 0° 137° (SE) 6,902 14.8 60.2°
